QPF
0.00 0.00 0.00 0.00 0.00 0.00 0.00 0.00 0.00 0.00 0.00 0.01 0.03 0.02 0.02 0.02 0.04 0.05 0.06 0.06 0.05 0.03 0.03 0.03 0.03 0.04 0.06 0.07 0.10 0.16 0.22 0.33 0.41 0.39 0.28 0.23 0.29 0.39 0.43 0.36 0.32 0.31 0.30 0.31
0.00 0.00 0.00 0.00 0.00 0.00 0.00 0.00 0.00 0.00 0.00 0.00 0.03 0.07 0.06 0.04 0.04 0.04 0.07 0.06 0.04 0.05 0.05 0.05 0.03 0.04 0.06 0.08 0.09 0.10 0.13 0.20 0.21 0.22 0.21 0.22 0.27 0.33 0.41 0.41 0.36 0.32 0.30 0.29
0.00 0.00 0.00 0.00 0.00 0.00 0.00 0.00 0.00 0.00 0.00 0.00 0.02 0.06 0.06 0.07 0.05 0.04 0.06 0.06 0.04 0.06 0.06 0.06 0.03 0.03 0.04 0.06 0.08 0.07 0.07 0.09 0.12 0.15 0.18 0.21 0.25 0.28 0.28 0.29 0.29 0.29 0.27 0.24
0.00 0.00 0.00 0.00 0.00 0.00 0.00 0.00 0.00 0.00 0.00 0.00 0.01 0.04 0.06 0.08 0.12 0.09 0.07 0.06 0.07 0.10 0.10 0.09 0.05 0.05 0.04 0.04 0.05 0.07 0.09 0.10 0.13 0.15 0.15 0.17 0.20 0.23 0.22 0.21 0.23 0.23 0.18 0.16
0.00 0.00 0.00 0.00 0.00 0.00 0.00 0.00 0.00 0.00 0.00 0.00 0.01 0.02 0.04 0.08 0.12 0.09 0.07 0.07 0.08 0.10 0.08 0.07 0.06 0.07 0.05 0.04 0.05 0.07 0.09 0.10 0.11 0.14 0.15 0.16 0.18 0.20 0.19 0.17 0.16 0.17 0.17 0.15
0.00 0.00 0.00 0.00 0.00 0.00 0.00 0.00 0.00 0.00 0.01 0.01 0.01 0.02 0.04 0.08 0.11 0.12 0.12 0.11 0.12 0.12 0.11 0.10 0.10 0.12 0.08 0.06 0.08 0.12 0.14 0.11 0.11 0.14 0.13 0.13 0.14 0.13 0.13 0.12 0.12 0.13 0.15 0.15
0.00 0.00 0.00 0.00 0.00 0.00 0.00 0.00 0.00 0.00 0.01 0.02 0.03 0.05 0.07 0.12 0.13 0.13 0.12 0.12 0.13 0.10 0.10 0.10 0.09 0.10 0.11 0.11 0.08 0.09 0.12 0.13 0.12 0.10 0.10 0.10 0.11 0.10 0.09 0.10 0.10 0.12 0.14 0.15
0.00 0.00 0.00 0.00 0.00 0.00 0.00 0.00 0.00 0.01 0.02 0.03 0.07 0.07 0.11 0.18 0.22 0.16 0.11 0.09 0.08 0.08 0.06 0.11 0.07 0.05 0.06 0.08 0.08 0.08 0.08 0.11 0.13 0.10 0.07 0.06 0.07 0.08 0.08 0.08 0.09 0.10 0.11 0.15
0.00 0.01 0.01 0.00 0.00 0.00 0.00 0.00 0.01 0.01 0.01 0.03 0.07 0.09 0.17 0.30 0.29 0.19 0.13 0.10 0.09 0.09 0.07 0.06 0.04 0.03 0.04 0.04 0.05 0.07 0.08 0.09 0.09 0.09 0.09 0.08 0.07 0.06 0.06 0.06 0.06 0.06 0.07 0.09
0.00 0.01 0.00 0.00 0.00 0.00 0.00 0.00 0.01 0.02 0.03 0.05 0.07 0.14 0.14 0.17 0.17 0.15 0.12 0.08 0.06 0.06 0.05 0.03 0.02 0.02 0.02 0.02 0.02 0.05 0.07 0.07 0.06 0.07 0.08 0.12 0.08 0.05 0.03 0.03 0.03 0.04 0.05 0.06
0.01 0.01 0.00 0.01 0.01 0.01 0.01 0.01 0.01 0.02 0.03 0.04 0.07 0.09 0.08 0.10 0.12 0.11 0.07 0.05 0.04 0.04 0.03 0.03 0.02 0.02 0.01 0.01 0.02 0.03 0.04 0.06 0.06 0.06 0.06 0.05 0.05 0.04 0.02 0.02 0.02 0.02 0.03 0.04
0.01 0.02 0.01 0.01 0.01 0.01 0.01 0.01 0.02 0.03 0.03 0.03 0.05 0.09 0.10 0.12 0.12 0.12 0.07 0.05 0.04 0.04 0.03 0.02 0.01 0.01 0.01 0.02 0.02 0.02 0.02 0.03 0.04 0.05 0.06 0.06 0.05 0.05 0.04 0.03 0.03 0.03 0.03 0.03
0.00 0.01 0.01 0.02 0.03 0.02 0.02 0.02 0.02 0.02 0.02 0.02 0.05 0.09 0.10 0.11 0.11 0.09 0.06 0.05 0.05 0.05 0.04 0.02 0.01 0.01 0.02 0.02 0.03 0.04 0.04 0.03 0.04 0.03 0.04 0.06 0.06 0.06 0.06 0.05 0.05 0.04 0.03 0.02
0.00 0.00 0.01 0.04 0.05 0.04 0.03 0.02 0.02 0.02 0.02 0.02 0.04 0.08 0.08 0.07 0.06 0.05 0.04 0.03 0.04 0.05 0.04 0.02 0.01 0.01 0.02 0.02 0.02 0.04 0.05 0.05 0.05 0.04 0.04 0.05 0.06 0.06 0.05 0.05 0.06 0.05 0.04 0.03
0.01 0.01 0.01 0.02 0.03 0.02 0.02 0.02 0.02 0.03 0.02 0.02 0.03 0.05 0.06 0.05 0.05 0.03 0.02 0.01 0.03 0.04 0.04 0.03 0.03 0.03 0.03 0.02 0.02 0.02 0.03 0.04 0.05 0.05 0.05 0.05 0.05 0.05 0.04 0.04 0.04 0.04 0.03 0.02
0.02 0.02 0.02 0.02 0.02 0.02 0.02 0.02 0.02 0.03 0.03 0.02 0.02 0.03 0.04 0.04 0.03 0.02 0.01 0.01 0.02 0.03 0.04 0.04 0.05 0.05 0.03 0.02 0.02 0.02 0.02 0.04 0.04 0.05 0.05 0.05 0.04 0.04 0.04 0.03 0.03 0.02 0.02 0.02
0.03 0.04 0.04 0.02 0.01 0.03 0.03 0.03 0.03 0.03 0.04 0.03 0.03 0.03 0.02 0.02 0.02 0.01 0.00 0.00 0.02 0.04 0.04 0.04 0.04 0.04 0.03 0.02 0.02 0.02 0.03 0.03 0.04 0.04 0.04 0.04 0.05 0.05 0.04 0.03 0.03 0.03 0.03 0.02
0.04 0.06 0.06 0.04 0.05 0.06 0.04 0.04 0.05 0.05 0.04 0.02 0.01 0.01 0.01 0.01 0.01 0.01 0.01 0.01 0.01 0.02 0.02 0.03 0.03 0.03 0.02 0.02 0.02 0.02 0.02 0.03 0.03 0.03 0.03 0.04 0.05 0.06 0.05 0.04 0.04 0.04 0.03 0.02
0.03 0.06 0.08 0.08 0.09 0.08 0.05 0.04 0.04 0.03 0.04 0.02 0.01 0.01 0.01 0.01 0.01 0.02 0.01 0.01 0.01 0.01 0.01 0.02 0.02 0.02 0.02 0.02 0.02 0.02 0.02 0.02 0.03 0.03 0.03 0.04 0.05 0.06 0.05 0.05 0.04 0.03 0.02 0.02
0.03 0.04 0.08 0.10 0.10 0.12 0.09 0.04 0.02 0.03 0.04 0.04 0.02 0.01 0.01 0.00 0.01 0.01 0.01 0.01 0.01 0.01 0.01 0.01 0.02 0.02 0.02 0.02 0.02 0.01 0.02 0.02 0.02 0.03 0.03 0.04 0.04 0.04 0.03 0.03 0.03 0.02 0.02 0.02
0.07 0.07 0.10 0.11 0.09 0.09 0.07 0.03 0.03 0.04 0.05 0.05 0.03 0.01 0.01 0.01 0.00 0.00 0.00 0.01 0.01 0.02 0.02 0.01 0.01 0.01 0.01 0.01 0.01 0.02 0.02 0.03 0.03 0.03 0.03 0.03 0.03 0.03 0.02 0.02 0.02 0.02 0.02 0.01
0.08 0.08 0.09 0.10 0.10 0.08 0.04 0.03 0.04 0.04 0.02 0.02 0.02 0.01 0.01 0.01 0.02 0.01 0.01 0.01 0.01 0.01 0.02 0.02 0.01 0.02 0.01 0.01 0.01 0.01 0.02 0.02 0.03 0.03 0.03 0.03 0.03 0.02 0.02 0.02 0.02 0.01 0.01 0.01
0.11 0.09 0.09 0.11 0.10 0.07 0.04 0.03 0.03 0.02 0.01 0.01 0.01 0.01 0.01 0.01 0.02 0.01 0.01 0.01 0.01 0.01 0.01 0.02 0.02 0.02 0.02 0.01 0.02 0.02 0.02 0.02 0.03 0.03 0.03 0.03 0.03 0.02 0.01 0.01 0.01 0.01 0.01 0.01
0.11 0.11 0.11 0.13 0.10 0.07 0.05 0.03 0.02 0.02 0.01 0.01 0.00 0.00 0.00 0.01 0.01 0.01 0.00 0.01 0.01 0.01 0.01 0.02 0.01 0.01 0.02 0.02 0.02 0.02 0.02 0.03 0.03 0.02 0.01 0.01 0.01 0.01 0.01 0.01 0.00 0.00 0.00 0.00
0.11 0.12 0.12 0.11 0.10 0.07 0.05 0.04 0.02 0.01 0.01 0.01 0.00 0.00 0.00 0.01 0.01 0.01 0.00 0.01 0.01 0.01 0.01 0.01 0.01 0.01 0.01 0.02 0.03 0.02 0.02 0.02 0.02 0.01 0.01 0.01 0.01 0.01 0.00 0.00 0.00 0.00 0.00 0.00
0.16 0.14 0.13 0.10 0.10 0.11 0.08 0.04 0.03 0.01 0.01 0.01 0.00 0.00 0.01 0.01 0.01 0.00 0.01 0.01 0.01 0.01 0.01 0.01 0.01 0.01 0.01 0.01 0.01 0.01 0.01 0.01 0.01 0.01 0.01 0.01 0.00 0.00 0.00 0.00 0.00 0.00 0.00 0.00
MSLP
1012.00 1012.66 1013.11 1013.32 1013.32 1013.16 1012.87 1012.53 1012.18 1011.83 1011.50 1011.19 1010.91 1010.66 1010.48 1010.39 1010.42 1010.58 1010.89 1011.31 1011.79 1012.28 1012.71 1013.01 1013.16 1013.14 1012.97 1012.70 1012.40 1012.12 1011.93 1011.87 1011.94 1012.13 1012.43 1012.79 1013.16 1013.52 1013.82 1014.07 1014.24 1014.36 1014.43 1014.48
1012.20 1012.67 1012.93 1012.98 1012.88 1012.69 1012.45 1012.23 1012.02 1011.85 1011.68 1011.51 1011.32 1011.12 1010.95 1010.84 1010.83 1010.96 1011.25 1011.67 1012.19 1012.73 1013.21 1013.56 1013.73 1013.71 1013.51 1013.18 1012.79 1012.41 1012.11 1011.95 1011.93 1012.05 1012.29 1012.61 1012.97 1013.32 1013.63 1013.88 1014.08 1014.22 1014.31 1014.38
1012.15 1012.40 1012.47 1012.38 1012.22 1012.04 1011.91 1011.85 1011.86 1011.90 1011.94 1011.93 1011.85 1011.71 1011.54 1011.39 1011.33 1011.41 1011.65 1012.05 1012.57 1013.14 1013.66 1014.05 1014.26 1014.26 1014.05 1013.68 1013.23 1012.78 1012.39 1012.13 1012.03 1012.08 1012.27 1012.55 1012.88 1013.23 1013.55 1013.83 1014.05 1014.23 1014.35 1014.45
1011.90 1011.95 1011.85 1011.66 1011.48 1011.38 1011.41 1011.57 1011.83 1012.12 1012.39 1012.55 1012.59 1012.49 1012.31 1012.10 1011.96 1011.95 1012.11 1012.46 1012.95 1013.52 1014.07 1014.50 1014.75 1014.78 1014.59 1014.22 1013.75 1013.24 1012.80 1012.47 1012.30 1012.28 1012.41 1012.66 1012.97 1013.30 1013.64 1013.94 1014.20 1014.41 1014.58 1014.71
1011.59 1011.46 1011.22 1010.99 1010.85 1010.88 1011.11 1011.52 1012.05 1012.61 1013.09 1013.42 1013.55 1013.48 1013.26 1012.97 1012.72 1012.59 1012.65 1012.90 1013.34 1013.88 1014.44 1014.90 1015.20 1015.28 1015.14 1014.80 1014.34 1013.83 1013.36 1012.98 1012.76 1012.68 1012.76 1012.96 1013.24 1013.57 1013.91 1014.23 1014.52 1014.77 1014.97 1015.13
1011.33 1011.05 1010.75 1010.52 1010.46 1010.65 1011.10 1011.77 1012.56 1013.35 1014.03 1014.50 1014.69 1014.63 1014.35 1013.95 1013.56 1013.29 1013.22 1013.37 1013.73 1014.23 1014.78 1015.28 1015.63 1015.78 1015.71 1015.44 1015.03 1014.55 1014.08 1013.68 1013.42 1013.30 1013.33 1013.48 1013.72 1014.02 1014.35 1014.67 1014.97 1015.24 1015.47 1015.65
1011.23 1010.86 1010.52 1010.33 1010.39 1010.74 1011.40 1012.29 1013.29 1014.27 1015.10 1015.65 1015.87 1015.78 1015.43 1014.92 1014.40 1013.99 1013.79 1013.83 1014.10 1014.56 1015.11 1015.64 1016.05 1016.29 1016.31 1016.13 1015.80 1015.38 1014.94 1014.55 1014.27 1014.11 1014.09 1014.19 1014.38 1014.63 1014.92 1015.23 1015.52 1015.79 1016.03 1016.22
1011.36 1010.93 1010.59 1010.46 1010.62 1011.11 1011.92 1012.96 1014.11 1015.20 1016.10 1016.68 1016.90 1016.77 1016.34 1015.75 1015.12 1014.60 1014.29 1014.24 1014.45 1014.88 1015.42 1015.99 1016.47 1016.79 1016.93 1016.86 1016.63 1016.29 1015.91 1015.56 1015.27 1015.09 1015.02 1015.05 1015.17 1015.37 1015.60 1015.86 1016.11 1016.36 1016.59 1016.78
1011.71 1011.26 1010.93 1010.85 1011.07 1011.64 1012.53 1013.63 1014.82 1015.93 1016.83 1017.40 1017.59 1017.41 1016.94 1016.30 1015.62 1015.05 1014.68 1014.59 1014.76 1015.17 1015.73 1016.33 1016.88 1017.30 1017.55 1017.60 1017.49 1017.26 1016.95 1016.64 1016.37 1016.16 1016.04 1016.02 1016.07 1016.18 1016.34 1016.53 1016.73 1016.93 1017.12 1017.29
1012.21 1011.76 1011.45 1011.39 1011.64 1012.21 1013.07 1014.13 1015.26 1016.30 1017.13 1017.64 1017.79 1017.59 1017.12 1016.49 1015.83 1015.28 1014.93 1014.85 1015.03 1015.46 1016.04 1016.68 1017.30 1017.81 1018.16 1018.33 1018.34 1018.21 1017.99 1017.73 1017.48 1017.27 1017.12 1017.03 1017.00 1017.03 1017.11 1017.21 1017.34 1017.48 1017.62 1017.76
1012.77 1012.34 1012.04 1011.97 1012.17 1012.67 1013.41 1014.33 1015.30 1016.20 1016.90 1017.32 1017.43 1017.25 1016.84 1016.29 1015.74 1015.30 1015.04 1015.03 1015.28 1015.74 1016.36 1017.05 1017.72 1018.29 1018.73 1019.01 1019.12 1019.10 1018.96 1018.77 1018.55 1018.34 1018.16 1018.03 1017.94 1017.89 1017.88 1017.91 1017.97 1018.04 1018.13 1018.23
1013.28 1012.88 1012.59 1012.48 1012.59 1012.95 1013.51 1014.21 1014.96 1015.65 1016.19 1016.52 1016.62 1016.49 1016.19 1015.80 1015.43 1015.16 1015.07 1015.19 1015.52 1016.05 1016.70 1017.42 1018.12 1018.75 1019.25 1019.60 1019.81 1019.87 1019.82 1019.69 1019.52 1019.32 1019.13 1018.96 1018.82 1018.72 1018.65 1018.61 1018.61 1018.63 1018.68 1018.74
1013.66 1013.31 1013.02 1012.85 1012.85 1013.03 1013.36 1013.81 1014.30 1014.77 1015.15 1015.40 1015.50 1015.46 1015.32 1015.15 1015.00 1014.96 1015.06 1015.34 1015.79 1016.38 1017.07 1017.80 1018.51 1019.16 1019.69 1020.09 1020.36 1020.50 1020.52 1020.45 1020.32 1020.15 1019.97 1019.79 1019.62 1019.48 1019.38 1019.31 1019.27 1019.26 1019.28 1019.32
1013.88 1013.58 1013.30 1013.08 1012.96 1012.95 1013.05 1013.24 1013.48 1013.74 1013.98 1014.16 1014.29 1014.37 1014.42 1014.48 1014.59 1014.79 1015.11 1015.54 1016.10 1016.74 1017.45 1018.17 1018.87 1019.50 1020.04 1020.46 1020.77 1020.96 1021.04 1021.03 1020.94 1020.81 1020.64 1020.47 1020.31 1020.16 1020.05 1019.97 1019.93 1019.92 1019.94 1019.98
1013.93 1013.69 1013.43 1013.18 1012.96 1012.78 1012.68 1012.64 1012.67 1012.76 1012.88 1013.03 1013.21 1013.42 1013.67 1013.96 1014.32 1014.75 1015.25 1015.83 1016.47 1017.14 1017.84 1018.53 1019.18 1019.77 1020.28 1020.71 1021.03 1021.26 1021.38 1021.41 1021.37 1021.28 1021.15 1021.00 1020.85 1020.73 1020.64 1020.59 1020.57 1020.59 1020.63 1020.68
1013.88 1013.70 1013.47 1013.19 1012.89 1012.60 1012.34 1012.13 1012.01 1011.97 1012.03 1012.18 1012.43 1012.77 1013.20 1013.70 1014.26 1014.88 1015.53 1016.20 1016.89 1017.56 1018.22 1018.85 1019.44 1019.97 1020.44 1020.85 1021.17 1021.41 1021.56 1021.64 1021.63 1021.57 1021.47 1021.36 1021.25 1021.16 1021.11 1021.11 1021.15 1021.21 1021.30 1021.39
1013.80 1013.66 1013.44 1013.15 1012.80 1012.43 1012.08 1011.78 1011.57 1011.47 1011.51 1011.69 1012.02 1012.48 1013.06 1013.72 1014.44 1015.19 1015.94 1016.66 1017.35 1017.99 1018.59 1019.15 1019.65 1020.12 1020.54 1020.91 1021.22 1021.47 1021.64 1021.73 1021.76 1021.73 1021.67 1021.59 1021.51 1021.47 1021.47 1021.53 1021.63 1021.76 1021.91 1022.05
1013.75 1013.61 1013.39 1013.08 1012.72 1012.32 1011.93 1011.60 1011.36 1011.27 1011.33 1011.57 1011.99 1012.55 1013.24 1014.02 1014.84 1015.66 1016.44 1017.17 1017.83 1018.42 1018.94 1019.41 1019.84 1020.23 1020.60 1020.93 1021.23 1021.47 1021.65 1021.76 1021.81 1021.80 1021.77 1021.72 1021.68 1021.68 1021.73 1021.84 1022.00 1022.20 1022.41 1022.61
1013.78 1013.59 1013.33 1013.00 1012.62 1012.22 1011.84 1011.54 1011.34 1011.30 1011.43 1011.75 1012.25 1012.90 1013.67 1014.51 1015.37 1016.21 1016.99 1017.68 1018.29 1018.81 1019.26 1019.66 1020.01 1020.35 1020.67 1020.97 1021.24 1021.48 1021.66 1021.78 1021.85 1021.86 1021.84 1021.81 1021.80 1021.84 1021.93 1022.08 1022.29 1022.54 1022.81 1023.06
1013.87 1013.59 1013.26 1012.89 1012.50 1012.11 1011.78 1011.53 1011.41 1011.46 1011.68 1012.09 1012.67 1013.39 1014.21 1015.08 1015.96 1016.78 1017.52 1018.17 1018.72 1019.18 1019.56 1019.89 1020.20 1020.49 1020.77 1021.05 1021.32 1021.54 1021.73 1021.86 1021.93 1021.95 1021.95 1021.94 1021.95 1022.00 1022.12 1022.30 1022.54 1022.82 1023.12 1023.41
1014.00 1013.59 1013.16 1012.72 1012.31 1011.95 1011.67 1011.51 1011.49 1011.65 1011.98 1012.49 1013.15 1013.92 1014.78 1015.65 1016.51 1017.30 1018.01 1018.60 1019.10 1019.51 1019.84 1020.13 1020.40 1020.67 1020.94 1021.20 1021.46 1021.69 1021.87 1022.01 1022.09 1022.13 1022.14 1022.14 1022.16 1022.23 1022.36 1022.55 1022.80 1023.10 1023.41 1023.71
1014.10 1013.54 1012.99 1012.49 1012.06 1011.72 1011.50 1011.44 1011.54 1011.81 1012.25 1012.85 1013.58 1014.40 1015.27 1016.15 1016.98 1017.74 1018.40 1018.96 1019.42 1019.79 1020.11 1020.38 1020.64 1020.90 1021.16 1021.43 1021.68 1021.91 1022.10 1022.25 1022.35 1022.40 1022.43 1022.45 1022.49 1022.57 1022.70 1022.88 1023.13 1023.41 1023.70 1023.99
1014.10 1013.39 1012.74 1012.17 1011.73 1011.42 1011.28 1011.31 1011.53 1011.92 1012.47 1013.15 1013.94 1014.79 1015.67 1016.53 1017.34 1018.07 1018.70 1019.23 1019.67 1020.04 1020.35 1020.63 1020.90 1021.16 1021.43 1021.70 1021.96 1022.19 1022.40 1022.56 1022.67 1022.75 1022.81 1022.86 1022.91 1023.00 1023.13 1023.31 1023.53 1023.78 1024.05 1024.30
1013.94 1013.12 1012.39 1011.79 1011.35 1011.09 1011.03 1011.16 1011.49 1011.99 1012.63 1013.39 1014.22 1015.09 1015.97 1016.81 1017.59 1018.30 1018.91 1019.43 1019.87 1020.25 1020.58 1020.88 1021.16 1021.43 1021.71 1021.99 1022.25 1022.49 1022.71 1022.89 1023.03 1023.15 1023.24 1023.32 1023.41 1023.52 1023.65 1023.82 1024.01 1024.22 1024.44 1024.65
1013.58 1012.71 1011.95 1011.35 1010.96 1010.77 1010.80 1011.04 1011.48 1012.07 1012.79 1013.60 1014.46 1015.33 1016.20 1017.02 1017.77 1018.45 1019.05 1019.57 1020.03 1020.42 1020.77 1021.09 1021.40 1021.69 1021.98 1022.26 1022.52 1022.77 1022.99 1023.19 1023.37 1023.52 1023.65 1023.78 1023.91 1024.04 1024.19 1024.35 1024.52 1024.69 1024.86 1025.01
1013.02 1012.15 1011.42 1010.89 1010.58 1010.49 1010.64 1010.99 1011.53 1012.21 1012.98 1013.83 1014.69 1015.56 1016.39 1017.18 1017.90 1018.56 1019.15 1019.67 1020.14 1020.55 1020.93 1021.28 1021.60 1021.91 1022.20 1022.47 1022.73 1022.98 1023.20 1023.42 1023.61 1023.80 1023.98 1024.15 1024.32 1024.49 1024.66 1024.82 1024.98 1025.12 1025.25 1025.35
Thickness
5716 5700 5692 5699 5705 5706 5708 5706 5707 5721 5738 5728 5718 5715 5717 5722 5722 5718 5715 5713 5712 5709 5708 5708 5708 5707 5706 5705 5705 5705 5703 5704 5703 5703 5702 5703 5702 5702 5702 5703 5702 5704 5705 5704
5695 5692 5710 5717 5717 5714 5710 5705 5708 5720 5734 5726 5711 5705 5710 5712 5710 5710 5708 5705 5703 5700 5698 5698 5697 5697 5696 5695 5694 5696 5695 5696 5697 5697 5699 5698 5695 5693 5693 5693 5695 5696 5696 5697
5688 5705 5722 5719 5715 5713 5713 5711 5712 5713 5720 5718 5708 5690 5692 5698 5702 5701 5697 5695 5693 5691 5687 5686 5685 5685 5685 5684 5684 5687 5688 5688 5689 5691 5691 5690 5688 5683 5683 5683 5685 5685 5687 5688
5697 5715 5719 5716 5716 5718 5705 5723 5722 5716 5701 5687 5693 5666 5676 5682 5682 5683 5682 5682 5681 5680 5679 5676 5674 5672 5672 5673 5675 5676 5677 5678 5679 5681 5682 5682 5680 5676 5675 5674 5675 5676 5677 5678
5697 5712 5712 5711 5720 5725 5717 5727 5720 5713 5697 5680 5678 5666 5664 5673 5669 5670 5671 5671 5671 5670 5668 5666 5664 5662 5662 5663 5664 5665 5665 5666 5667 5669 5670 5672 5671 5669 5667 5666 5667 5667 5667 5668
5706 5721 5721 5721 5730 5732 5727 5715 5704 5690 5677 5661 5668 5660 5654 5661 5665 5665 5665 5663 5661 5660 5659 5657 5655 5653 5652 5653 5654 5655 5655 5655 5656 5656 5658 5659 5659 5659 5658 5657 5656 5656 5656 5658
5695 5710 5723 5729 5719 5721 5714 5684 5662 5658 5647 5650 5664 5655 5650 5662 5667 5664 5659 5655 5652 5650 5648 5646 5645 5643 5640 5640 5642 5643 5643 5644 5644 5645 5645 5646 5647 5647 5646 5645 5644 5645 5646 5647
5676 5683 5710 5720 5713 5704 5704 5686 5656 5646 5641 5644 5655 5646 5648 5659 5661 5657 5651 5648 5643 5639 5638 5635 5634 5632 5630 5629 5630 5631 5631 5632 5632 5632 5633 5633 5635 5634 5633 5633 5632 5634 5635 5636
5678 5683 5712 5721 5722 5712 5698 5686 5681 5657 5651 5640 5640 5644 5646 5652 5650 5645 5641 5637 5633 5630 5627 5624 5622 5621 5619 5618 5618 5620 5620 5619 5619 5619 5619 5620 5620 5621 5620 5620 5621 5622 5623 5625
5690 5682 5699 5713 5714 5709 5702 5691 5669 5654 5639 5632 5637 5639 5637 5641 5641 5638 5634 5629 5625 5621 5617 5615 5611 5609 5607 5606 5607 5607 5607 5607 5607 5607 5607 5608 5607 5608 5608 5608 5609 5610 5611 5612
5693 5676 5684 5691 5687 5684 5688 5682 5668 5652 5645 5631 5624 5632 5653 5647 5643 5636 5629 5623 5619 5614 5609 5605 5601 5598 5596 5596 5595 5595 5595 5594 5594 5594 5595 5596 5595 5595 5596 5596 5596 5597 5598 5599
5689 5670 5664 5675 5689 5696 5689 5681 5666 5649 5644 5639 5629 5632 5654 5650 5642 5634 5626 5619 5614 5608 5603 5598 5594 5590 5587 5585 5585 5583 5583 5583 5582 5582 5582 5583 5583 5583 5583 5583 5584 5585 5586 5586
5683 5665 5650 5654 5664 5679 5679 5680 5673 5658 5644 5636 5629 5633 5645 5642 5634 5628 5621 5613 5607 5600 5595 5589 5586 5582 5578 5576 5574 5573 5572 5571 5570 5570 5570 5571 5571 5571 5571 5571 5572 5573 5574 5574
5686 5663 5653 5647 5654 5667 5669 5676 5675 5659 5640 5638 5642 5638 5634 5632 5627 5620 5613 5606 5600 5594 5588 5582 5577 5573 5569 5566 5564 5562 5561 5560 5560 5559 5559 5559 5559 5559 5560 5561 5561 5561 5562 5562
5672 5660 5665 5667 5674 5674 5672 5674 5674 5665 5658 5647 5647 5643 5639 5633 5626 5617 5609 5601 5594 5587 5581 5575 5569 5564 5560 5557 5554 5553 5551 5551 5550 5550 5548 5548 5548 5548 5549 5550 5550 5550 5550 5550
5661 5658 5661 5661 5672 5672 5670 5675 5675 5671 5665 5656 5648 5641 5642 5631 5621 5612 5604 5597 5589 5582 5575 5568 5562 5557 5553 5550 5547 5545 5543 5541 5541 5541 5540 5539 5539 5539 5539 5539 5539 5539 5539 5539
5651 5650 5646 5644 5659 5662 5655 5667 5669 5667 5665 5657 5645 5640 5633 5623 5616 5608 5601 5594 5585 5576 5569 5562 5556 5551 5546 5543 5540 5537 5535 5534 5533 5533 5532 5532 5531 5531 5531 5531 5529 5529 5528 5528
5648 5643 5635 5636 5643 5638 5655 5675 5673 5664 5659 5659 5650 5641 5633 5623 5611 5603 5596 5588 5579 5571 5563 5556 5550 5544 5540 5536 5533 5531 5529 5528 5527 5526 5526 5525 5524 5523 5523 5522 5521 5520 5520 5519
5653 5643 5633 5629 5630 5639 5658 5669 5667 5657 5646 5650 5642 5634 5623 5613 5602 5591 5587 5581 5573 5565 5557 5550 5544 5539 5534 5530 5527 5525 5523 5522 5521 5520 5520 5519 5518 5517 5515 5514 5513 5512 5512 5511
5653 5646 5634 5629 5628 5629 5651 5669 5672 5659 5638 5644 5639 5629 5618 5609 5597 5589 5581 5574 5566 5558 5551 5545 5539 5533 5529 5525 5522 5520 5517 5516 5515 5515 5514 5513 5512 5511 5509 5508 5507 5506 5505 5504
5637 5635 5632 5629 5627 5639 5661 5671 5668 5644 5641 5644 5636 5627 5617 5609 5602 5591 5578 5568 5560 5552 5545 5540 5534 5528 5524 5521 5518 5514 5512 5510 5510 5510 5509 5508 5506 5505 5504 5503 5502 5501 5500 5499
5630 5629 5630 5629 5624 5633 5662 5663 5654 5650 5651 5643 5632 5623 5613 5604 5595 5584 5573 5563 5554 5547 5540 5534 5528 5523 5520 5517 5514 5510 5508 5507 5507 5506 5504 5503 5502 5502 5500 5499 5497 5497 5495 5493
5630 5633 5631 5632 5633 5648 5657 5657 5657 5654 5644 5636 5626 5617 5609 5599 5588 5577 5567 5557 5549 5543 5536 5530 5525 5520 5516 5513 5511 5507 5505 5505 5503 5501 5500 5499 5498 5497 5496 5495 5493 5492 5490 5488
5633 5639 5635 5635 5642 5647 5649 5650 5650 5648 5641 5633 5625 5615 5606 5595 5584 5572 5562 5553 5545 5539 5533 5527 5522 5517 5513 5511 5509 5506 5504 5503 5501 5498 5496 5495 5493 5492 5491 5490 5490 5488 5486 5484
5628 5633 5632 5632 5638 5641 5642 5642 5640 5638 5633 5626 5617 5610 5601 5591 5579 5569 5559 5551 5543 5537 5531 5525 5520 5516 5512 5510 5507 5505 5503 5501 5498 5496 5494 5492 5490 5488 5486 5485 5484 5484 5484 5484
5631 5633 5632 5633 5639 5637 5635 5637 5636 5631 5624 5618 5611 5602 5594 5588 5577 5567 5558 5550 5543 5536 5530 5524 5520 5516 5513 5510 5507 5505 5503 5501 5497 5494 5492 5490 5488 5486 5484 5483 5481 5482 5482 5483